Content
SEND FEEDBACK

Daily
Averages
Monthly
Summary
United States of America

LEGGETT, TEXAS


Home > North America > United States > Texas
Elevation: 172 feet     Latitude: 30 44N     Longitude: 094 56W

WEATHER
 
SELECT A DAY
Number of Records: 116,375;   Date Range: 10/20/09 - 9/20/14
 
SHARE

PRINT THIS DATA

[ ← Previous Day ]
WEATHER ALMANAC - FEBRUARY 13, 2013
[ Next Day → ]
[ °C ]   °F
Weather ElementAverageHighLow
Temperature48.9 °F59 °F (3:15 pm)35.6 °F (11:35 pm)
Dewpoint37.5 °F42.8 °F (12:35 am)33.8 °F (11:35 pm)
Humidity66.6 %100 % (11:55 pm)42 % (3:15 pm)
Barometer30.08 in30.13 in (7:55 am)29.99 in (12:35 am)
Wind Speed6.8 mph15 mph (1:35 am)
Wind Gust23 mph (9:55 am)
Weather ElementAverage
Visibility10 mi
Wind DirectionWSW (232 °)

Weather ElementTotal
Precipitation---
Heating Degree Days17.7 (Base 65)
Averaged from 71 records on February 13, 2013
WEATHER CONDITIONS BREAKOUT
WIND DIRECTION BREAKOUT
WEATHER BY HOUR - FEBRUARY 13, 2013
[ °C ]   °F
Local TimeTemperatureDewpointHumidityBarometerVisibilityWind DirectionWind SpeedGust SpeedPrecipitationEventsConditions
12:35 AM51.8 °F42.8 °F71 %29.99 in10.0 miNNW (330°)11.5 mphClear
12:55 AM51.8 °F42.8 °F71 %30.02 in10.0 miNW (310°)5.8 mphClear
1:15 AM51.8 °F42.8 °F71 %30.02 in10.0 miNNW (330°)8.1 mph16.1 mphClear
1:35 AM51.8 °F42.8 °F71 %30.02 in10.0 miNNW (340°)15.0 mph18.4 mphClear
1:55 AM50.0 °F42.8 °F76 %30.02 in10.0 miNNW (330°)9.2 mphScattered Clouds
2:15 AM50.0 °F42.8 °F76 %30.04 in10.0 miNW (320°)8.1 mphScattered Clouds
2:35 AM50.0 °F41.0 °F71 %30.05 in10.0 miNNW (330°)10.4 mphScattered Clouds
2:55 AM50.0 °F41.0 °F71 %30.05 in10.0 miNW (320°)9.2 mphOvercast
3:15 AM50.0 °F41.0 °F71 %30.05 in10.0 miNW (320°)11.5 mph16.1 mphOvercast
3:35 AM50.0 °F41.0 °F71 %30.05 in10.0 miNW (320°)12.7 mph19.6 mphOvercast
3:55 AM48.2 °F39.2 °F71 %30.03 in10.0 miNNW (330°)10.4 mphScattered Clouds
4:15 AM48.2 °F37.4 °F66 %30.02 in10.0 miNNW (330°)9.2 mph17.3 mphScattered Clouds
4:35 AM48.2 °F37.4 °F66 %30.04 in10.0 miNW (320°)13.8 mph20.7 mphScattered Clouds
4:55 AM46.4 °F37.4 °F71 %30.05 in10.0 miNW (320°)15.0 mph20.7 mphMostly Cloudy
5:15 AM46.4 °F35.6 °F66 %30.05 in10.0 miNNW (330°)10.4 mphScattered Clouds
5:35 AM46.4 °F35.6 °F66 %30.06 in10.0 miNNW (330°)9.2 mphClear
5:55 AM44.6 °F35.6 °F71 %30.07 in10.0 miNNW (330°)8.1 mphClear
6:15 AM44.6 °F35.6 °F71 %30.09 in10.0 miNW (310°)8.1 mphScattered Clouds
6:35 AM44.6 °F35.6 °F71 %30.11 in10.0 miNW (320°)6.9 mphOvercast
6:55 AM44.6 °F35.6 °F71 %30.11 in10.0 miNW (310°)5.8 mphMostly Cloudy
7:15 AM44.6 °F35.6 °F71 %30.11 in10.0 miNW (320°)5.8 mphOvercast
7:35 AM44.6 °F35.6 °F71 %30.11 in10.0 miNNW (330°)9.2 mphOvercast
7:55 AM44.6 °F35.6 °F71 %30.13 in10.0 miNW (320°)9.2 mphOvercast
8:15 AM44.6 °F35.6 °F71 %30.13 in10.0 miNNW (330°)9.2 mphOvercast
8:35 AM44.6 °F35.6 °F71 %30.13 in10.0 miNNW (330°)12.7 mph18.4 mphScattered Clouds
8:55 AM44.6 °F35.6 °F71 %30.12 in10.0 miNorth (350°)11.5 mph16.1 mphMostly Cloudy
9:15 AM46.4 °F35.6 °F66 %30.13 in10.0 miNNW (340°)9.2 mph19.6 mphScattered Clouds
9:35 AM46.4 °F35.6 °F66 %30.13 in10.0 miNorth (360°)9.2 mph17.3 mphScattered Clouds
9:55 AM48.2 °F35.6 °F62 %30.13 in10.0 miNNW (340°)13.8 mph23.0 mphScattered Clouds
10:15 AM50.0 °F37.4 °F62 %30.13 in10.0 miNNW (340°)12.7 mph16.1 mphScattered Clouds
10:35 AM51.8 °F37.4 °F58 %30.13 in10.0 miNorth (360°)13.8 mph20.7 mphScattered Clouds
10:55 AM51.8 °F35.6 °F54 %30.12 in10.0 miNNW (340°)10.4 mph23.0 mphScattered Clouds
11:15 AM51.8 °F35.6 °F54 %30.12 in10.0 miNorth (350°)12.7 mph20.7 mphScattered Clouds
11:35 AM53.6 °F37.4 °F54 %30.12 in10.0 miNNE (30°)9.2 mphClear
11:55 AM53.6 °F35.6 °F51 %30.12 in10.0 miNorth (350°)10.4 mph18.4 mphClear
12:15 PM53.6 °F37.4 °F54 %30.11 in10.0 miNorth (360°)9.2 mphClear
12:35 PM53.6 °F37.4 °F54 %30.10 in10.0 miNNW (340°)8.1 mphClear
12:55 PM55.4 °F37.4 °F51 %30.09 in10.0 miNNW (340°)12.7 mph18.4 mphClear
1:15 PM55.4 °F37.4 °F51 %30.08 in10.0 miNorth (350°)6.9 mph18.4 mphClear
1:35 PM55.4 °F37.4 °F51 %30.07 in10.0 miNNW (340°)8.1 mphClear
1:55 PM55.4 °F37.4 °F51 %30.07 in10.0 miNorth (10°)8.1 mphClear
2:15 PM57.2 °F37.4 °F48 %30.06 in10.0 miNorth (10°)5.8 mphClear
2:35 PM57.2 °F37.4 °F48 %30.06 in10.0 miNorth (350°)6.9 mph16.1 mphClear
2:55 PM57.2 °F35.6 °F44 %30.06 in10.0 miNNW (340°)4.6 mphClear
3:15 PM59.0 °F35.6 °F42 %30.05 in10.0 miNNW (340°)9.2 mphClear
3:35 PM59.0 °F35.6 °F42 %30.05 in10.0 miNorth (350°)6.9 mphClear
3:55 PM59.0 °F35.6 °F42 %30.05 in10.0 miNNW (340°)10.4 mphClear
4:15 PM59.0 °F35.6 °F42 %30.05 in10.0 miNNW (340°)6.9 mphClear
4:35 PM57.2 °F37.4 °F48 %30.05 in10.0 miNorth (350°)8.1 mphClear
4:55 PM57.2 °F35.6 °F44 %30.05 in10.0 miNorth (360°)5.8 mphClear
5:15 PM55.4 °F37.4 °F51 %30.05 in10.0 miNorth (350°)6.9 mphClear
5:35 PM55.4 °F37.4 °F51 %30.06 in10.0 miCalmClear
5:55 PM53.6 °F37.4 °F54 %30.06 in10.0 miCalmClear
6:15 PM51.8 °F37.4 °F58 %30.07 in10.0 miCalmClear
6:35 PM48.2 °F39.2 °F71 %30.07 in10.0 miCalmClear
6:55 PM46.4 °F39.2 °F76 %30.07 in10.0 miCalmClear
7:15 PM46.4 °F41.0 °F81 %30.08 in10.0 miCalmClear
7:35 PM44.6 °F39.2 °F81 %30.09 in10.0 miCalmClear
7:55 PM44.6 °F39.2 °F81 %30.09 in10.0 miCalmClear
8:15 PM44.6 °F39.2 °F81 %30.10 in10.0 miNNW (330°)3.5 mphClear
8:35 PM44.6 °F37.4 °F76 %30.10 in10.0 miCalmClear
8:55 PM42.8 °F37.4 °F81 %30.10 in10.0 miCalmClear
9:15 PM42.8 °F37.4 °F81 %30.11 in10.0 miCalmClear
9:35 PM41.0 °F37.4 °F87 %30.11 in10.0 miCalmClear
9:55 PM39.2 °F37.4 °F93 %30.11 in10.0 miCalmClear
10:15 PM41.0 °F37.4 °F87 %30.11 in10.0 miCalmClear
10:35 PM39.2 °F37.4 °F93 %30.11 in10.0 miCalmClear
10:55 PM39.2 °F35.6 °F87 %30.11 in10.0 miCalmClear
11:15 PM37.4 °F35.6 °F93 %30.11 in10.0 miCalmClear
11:35 PM35.6 °F33.8 °F93 %30.11 in10.0 miCalmClear
11:55 PM35.6 °F35.6 °F100 %30.11 in10.0 miCalmClear
Hourly data recorded from K6R3, located miles away from Leggett, Texas







STORIES FROM OUR PARTNERS